sat.trackr.live / text

‹ back to catalog

STARLINK-31905

NORAD 59896 · 2024-100M

PAYLOAD ACTIVE UNKNOWN

§ Identity

Operator
Country
US
Launch date
2024-05-28
Launch site
AFETR
Launch vehicle
Mass (kg)
RCS (m²)

Purposes: comms

External: N2YO · Heavens-Above · Gunter

§ Orbital elements

Epoch: 2026-09-21T05:56:15.846432Z

Period
94.27 min
Inclination
43.0027°
Eccentricity
0.0001095
Mean motion
15.27575396 rev/d
Perigee alt
482.3 km
Apogee alt
483.8 km
Semi-major
6,861.2 km
B*
-4.9711e-6
RAAN
97.6405°
Arg perigee
270.8442°
Mean anomaly
89.2285°
Rev number
13,110

§ Raw data

STARLINK-319051 59896U 24100M   26264.24740563 -.00000399  00000+0 -49711-5 0  99942 59896  43.0027  97.6405 0001095 270.8442  89.2285 15.27575396131108

JSON: /api/v1/satellites/59896 · /tle

For live sub-satellite position, see the globe view (requires WebGL).

§ Visibility from observer

Set your observer location to see the next 7 days of passes ≥ 10°. The values pass through the URL so the page stays shareable.

No JS? Fill the form by hand. The geolocation button needs JavaScript.